Theta_e
304 306 306 305 305 305 305 304 303 301 301 300 299 299 299 302 305 305 303 308 310 310 310 309 312 312 311 309 308 308 306 306 305 307 310 313 313 314 314 311 310 309 307 307 308 310 310 308 308 305 305 310 310 310
307 305 304 303 306 305 304 303 304 302 301 301 300 301 301 301 302 304 304 306 309 310 310 311 311 310 310 310 307 309 308 309 308 306 309 314 315 312 313 313 310 309 310 310 308 308 309 309 309 310 310 310 310 309
307 306 304 304 305 305 303 303 303 304 302 303 303 302 302 301 303 304 306 308 309 309 309 309 310 309 311 310 310 307 310 310 311 312 314 314 315 309 311 310 310 309 309 307 306 307 308 310 310 310 310 310 309 309
307 306 305 304 305 304 302 300 301 303 303 303 304 304 302 301 303 303 303 306 307 308 309 309 309 310 308 310 310 309 307 309 309 311 314 312 309 310 308 308 306 306 306 305 304 305 309 310 309 309 308 308 308 308
307 306 305 304 304 303 300 300 299 301 303 303 303 304 303 301 302 303 303 303 305 306 309 308 308 308 310 310 310 309 307 306 309 311 310 310 313 307 306 304 305 307 306 304 304 307 308 309 310 309 308 307 307 306
306 305 305 304 304 301 302 301 299 301 303 303 303 303 302 301 303 304 304 304 304 307 307 308 309 307 307 308 308 307 306 306 309 312 310 311 311 311 302 303 308 310 310 310 308 309 310 309 309 308 308 307 306 304
306 305 304 302 301 303 303 301 298 301 302 302 302 302 301 301 304 304 304 306 306 307 307 307 307 306 305 306 306 306 306 309 310 311 310 310 309 311 300 304 309 310 310 309 309 309 307 307 307 308 307 306 304 302
305 304 302 302 303 303 303 300 299 301 301 302 301 301 301 300 303 304 304 305 306 304 306 306 308 304 306 307 307 308 308 309 309 311 310 308 308 306 303 307 311 310 309 308 308 308 308 306 306 306 306 304 302 301
304 304 302 303 303 303 302 301 298 298 302 301 300 301 300 301 303 303 304 304 305 305 301 306 305 305 306 307 307 308 309 304 308 305 306 306 304 303 306 307 309 309 309 308 307 307 307 307 306 305 304 303 301 301
303 304 303 303 303 302 301 299 298 299 299 299 301 301 301 301 302 303 304 305 305 301 302 304 307 305 305 306 305 306 307 304 303 304 307 300 303 308 309 309 308 309 309 308 307 305 305 305 305 304 303 302 301 301
303 303 303 303 303 302 301 299 299 299 299 301 300 301 301 302 302 303 303 302 300 301 304 305 307 303 307 307 306 307 303 304 304 305 304 302 303 304 307 308 309 308 308 307 307 306 305 305 304 303 302 302 301 301
303 303 301 301 301 301 301 300 299 299 300 300 300 301 300 302 301 301 301 301 302 305 305 305 306 306 307 308 305 303 305 301 303 302 299 303 302 308 307 308 308 308 307 306 305 305 305 304 304 303 302 301 301 300
302 302 301 301 301 301 301 301 299 299 300 300 300 301 301 299 299 302 303 303 306 305 306 306 304 306 305 306 304 302 302 300 301 298 302 301 304 306 306 307 306 306 305 305 304 305 304 304 303 302 302 301 300 300
302 301 301 301 300 300 301 301 299 298 300 300 300 299 298 298 300 302 301 301 306 305 306 306 304 304 305 304 302 304 301 298 299 301 304 301 306 305 306 306 306 305 305 304 304 303 303 303 302 302 301 301 300 299
299 300 301 301 298 299 301 301 299 299 299 300 299 298 299 300 302 302 303 304 306 306 306 305 305 305 302 305 302 298 299 298 301 302 300 306 306 305 305 305 305 304 304 303 303 302 302 301 301 301 300 299 298 297
301 301 301 300 299 300 301 300 299 299 300 300 298 301 301 299 299 302 303 304 305 305 306 306 305 305 304 303 299 300 299 302 302 300 307 307 305 304 304 305 304 304 303 302 302 301 301 300 300 299 298 297 297 298
301 302 300 300 301 300 301 300 300 300 299 299 296 299 302 303 302 303 304 304 304 305 305 304 307 306 299 294 297 298 300 301 304 306 307 306 305 304 304 305 304 303 303 302 301 300 300 299 299 298 297 298 298 298
301 300 300 300 301 301 301 299 300 300 298 298 299 300 301 303 304 304 304 304 305 305 306 306 304 301 299 299 300 302 305 307 307 307 306 305 304 303 304 304 303 303 302 301 300 299 298 297 296 297 298 298 297 297
301 301 302 302 302 301 299 298 300 298 298 298 300 301 302 303 303 304 304 305 305 305 306 306 303 302 301 301 304 305 307 308 305 304 304 303 303 303 303 302 302 301 300 300 299 298 297 297 297 298 298 297 297 297
302 302 302 301 301 300 298 295 299 299 299 300 300 301 303 303 303 304 303 304 304 305 304 303 300 303 305 307 308 308 308 306 305 302 302 302 303 302 302 301 300 300 299 298 298 297 297 298 298 298 297 297 296 295
302 301 302 301 299 299 299 297 298 299 299 300 300 301 301 302 303 303 303 303 303 303 299 304 305 307 307 307 308 308 307 306 304 303 302 301 301 301 300 300 299 299 299 298 297 298 298 298 298 297 297 296 295 294
301 302 299 298 299 299 298 298 298 298 299 300 300 301 300 299 300 302 303 302 301 303 304 305 305 306 305 305 306 307 305 304 303 302 300 300 300 300 300 299 299 299 298 297 297 298 298 298 297 297 296 295 293 292
301 299 298 299 297 297 297 298 299 300 298 300 300 301 300 299 301 301 300 301 302 303 303 304 305 305 304 304 304 304 303 303 302 301 300 300 300 299 299 299 299 298 297 297 298 298 298 297 297 296 295 293 292 292
299 299 298 298 298 297 297 298 299 300 300 301 301 301 301 300 300 299 299 299 302 303 303 303 304 302 302 302 302 302 302 302 301 300 300 300 299 299 299 299 298 298 297 298 298 298 298 297 296 295 293 292 291 291
298 297 298 298 297 295 294 297 299 300 301 302 300 300 300 300 300 301 300 300 303 303 303 303 303 302 302 301 300 301 301 301 301 300 300 300 299 299 299 298 298 297 298 298 298 298 297 296 295 294 293 292 291 290
298 296 298 297 294 297 297 299 299 300 300 301 300 299 299 299 300 300 298 302 302 303 303 302 302 300 300 301 301 301 300 301 301 300 299 300 300 299 298 297 298 298 298 298 297 297 297 295 295 293 292 291 290 290
297 296 297 298 298 299 299 299 301 300 300 300 299 298 299 301 301 300 304 304 303 303 303 304 303 302 302 300 300 300 300 300 301 301 300 299 299 299 300 299 297 298 298 298 297 297 297 295 294 293 292 291 290 289
298 297 298 297 298 300 299 300 301 302 302 299 298 299 300 302 302 302 302 302 303 303 303 303 302 301 301 301 301 301 300 300 300 300 299 299 298 298 298 298 298 298 298 298 297 297 296 295 294 293 292 291 290 289
296 297 298 296 295 298 298 300 299 301 302 299 300 300 299 298 298 299 300 302 302 302 301 300 299 299 300 300 300 300 301 300 299 299 298 298 297 297 297 298 298 298 298 297 297 296 295 294 293 292 291 291 289 289
296 298 298 298 295 297 296 298 300 300 300 300 299 296 293 294 295 296 300 301 301 301 301 301 300 300 300 300 299 299 299 299 299 300 299 298 298 297 298 298 298 298 297 297 296 295 294 293 292 291 291 289 288 288
298 297 295 295 295 295 296 297 298 299 300 299 297 295 293 294 295 297 300 301 300 300 299 299 299 300 300 300 300 300 298 299 299 299 300 299 298 297 298 298 298 297 297 297 296 296 294 293 292 291 290 289 288 288
297 296 296 294 294 296 296 297 297 297 297 296 295 295 294 294 294 298 300 300 300 299 299 300 300 299 300 300 300 300 300 299 299 299 299 298 297 298 298 298 297 297 297 296 296 295 293 292 292 291 289 288 288 287
296 296 296 297 297 296 297 297 297 295 295 295 296 296 295 295 293 295 299 300 300 300 299 299 299 300 300 300 300 300 300 299 299 299 298 297 297 298 298 297 297 297 296 296 295 294 293 292 291 290 289 288 287 287
Wind_Speed
38 39 33 32 32 30 27 24 21 18 18 17 16 15 14 13 14 16 18 13 16 10 23 24 15 11 13 7 1 3 2 3 2 1 3 4 3 3 2 5 5 6 5 4 2 1 6 9 4 6 5 7 9 7
40 40 36 34 32 30 26 24 22 19 18 18 17 16 14 14 15 14 16 17 14 21 15 8 17 23 23 14 11 4 4 3 9 1 2 2 0 1 3 2 1 1 6 4 7 6 6 21 4 7 9 10 7 7
39 39 35 33 32 30 27 25 22 22 19 19 18 17 16 14 15 13 13 15 14 17 27 31 32 31 28 27 17 7 5 5 4 3 2 2 1 4 2 5 3 2 5 3 3 4 8 18 9 11 10 9 10 8
37 39 38 33 32 29 26 25 25 23 21 20 19 17 16 16 17 16 15 17 19 9 7 14 25 23 33 29 23 20 22 17 12 7 1 2 2 3 3 3 4 6 5 4 4 7 4 13 20 18 13 10 9 11
41 36 37 34 32 29 28 27 26 24 22 20 19 17 15 16 16 16 17 20 24 18 4 9 19 20 23 25 28 25 23 18 10 4 1 3 3 2 2 2 4 8 7 5 6 11 8 4 17 18 16 14 11 12
41 37 38 36 31 30 26 25 24 24 22 21 19 17 14 15 14 11 6 12 25 23 8 3 9 15 20 19 19 20 19 15 10 5 4 3 3 3 2 3 8 17 19 17 7 8 8 10 13 14 14 12 11 12
39 38 38 34 33 31 28 26 26 24 23 20 19 17 14 14 18 17 5 1 7 23 5 4 4 7 9 11 11 13 15 10 9 4 3 4 4 4 3 4 8 12 9 16 14 13 11 13 9 12 9 12 13 12
40 38 38 36 33 32 28 25 25 24 22 20 18 16 14 14 15 21 21 21 5 7 9 3 3 4 13 7 6 10 9 9 7 4 3 4 4 1 4 10 15 8 5 20 18 13 7 12 13 14 13 17 17 17
40 42 40 39 32 30 27 27 25 24 22 19 14 12 11 12 14 16 18 18 25 14 4 5 5 4 15 7 6 9 8 2 4 3 3 5 2 5 8 14 13 13 16 18 15 9 12 14 18 18 17 17 17 13
41 43 40 35 35 31 28 26 25 23 21 17 16 8 6 9 12 8 6 7 11 10 9 4 7 3 12 5 4 5 3 3 2 5 7 3 4 21 21 17 9 12 18 20 19 17 19 19 20 19 17 14 13 12
41 41 39 36 35 32 29 26 26 22 20 20 12 8 9 6 12 9 6 6 8 4 10 9 13 5 11 4 3 5 3 2 3 4 5 3 4 6 15 21 17 15 17 15 11 13 17 17 21 19 17 14 13 12
43 41 37 37 35 34 30 29 29 28 23 20 13 13 10 6 6 4 4 4 5 6 8 11 11 8 9 6 4 5 3 2 4 7 3 4 4 10 12 16 21 19 16 18 15 20 18 17 16 17 17 16 13 9
43 39 37 35 35 34 33 31 31 29 24 23 9 7 7 7 5 6 8 5 4 6 12 20 6 10 7 6 5 3 3 5 10 2 5 5 5 16 19 23 22 19 21 21 21 21 22 20 19 19 16 12 9 6
38 38 35 36 35 34 33 33 35 34 27 8 9 6 6 6 6 4 4 5 10 10 25 28 12 7 5 3 4 4 2 4 1 3 7 4 22 23 25 24 27 27 26 27 26 25 25 23 20 16 13 10 7 4
38 38 34 35 34 34 36 36 38 37 16 8 8 7 8 11 10 14 23 10 11 24 30 16 6 6 1 3 2 4 2 5 7 6 4 9 27 30 29 30 30 30 29 28 26 25 22 20 18 15 11 8 4 2
37 33 35 33 34 36 37 38 40 33 11 8 9 4 6 7 8 19 18 21 20 27 24 11 4 3 5 4 4 8 7 7 4 4 9 20 32 32 32 33 32 30 29 27 25 24 21 19 16 13 9 5 4 1
37 35 36 37 36 39 42 37 29 10 11 8 6 16 12 7 14 21 24 23 24 26 6 4 7 8 2 2 4 5 6 4 6 12 21 28 33 35 34 34 32 30 29 28 27 23 21 17 14 11 9 7 3 3
38 38 33 40 42 46 41 25 15 15 8 8 7 15 18 23 14 21 21 21 24 21 25 7 8 5 6 7 5 4 7 5 13 22 27 28 31 34 35 36 34 32 31 30 26 22 19 16 14 13 10 7 5 3
37 37 36 45 54 37 10 15 14 8 7 9 16 23 27 18 33 22 15 19 27 25 16 9 3 5 5 5 6 16 22 21 25 25 27 29 33 37 36 35 35 33 31 28 24 19 16 14 13 12 10 7 5 2
33 37 40 56 55 17 6 4 22 6 5 8 18 26 26 25 27 25 12 23 25 10 6 3 5 5 7 13 14 24 32 31 35 34 33 33 35 37 38 38 36 33 29 24 20 19 19 17 14 12 9 6 3 2
38 42 55 58 29 11 6 9 9 11 9 8 7 22 16 29 25 19 15 20 18 7 3 11 15 17 9 12 16 18 29 34 40 40 49 44 41 40 39 36 35 32 28 24 23 20 17 15 15 11 8 5 2 1
38 50 44 36 8 7 5 10 10 11 9 8 16 8 3 4 8 18 23 17 9 19 26 25 22 15 13 13 14 19 28 34 33 32 36 43 47 43 40 38 35 30 24 23 22 21 19 16 13 10 7 4 4 3
47 36 29 7 5 5 6 17 5 11 4 8 15 5 3 3 10 18 7 11 18 28 28 23 21 20 17 14 16 21 28 32 32 37 41 42 40 40 40 36 30 27 26 23 20 20 18 16 12 9 7 6 5 6
40 9 6 7 5 4 12 6 8 6 6 5 7 6 6 6 15 5 4 7 21 28 30 29 22 22 19 20 25 28 30 30 35 39 40 41 40 39 35 31 26 23 23 25 23 20 18 15 12 9 8 7 7 6
6 7 9 5 7 6 5 7 6 4 4 5 7 4 5 10 5 5 4 5 24 30 29 33 32 31 33 31 29 31 31 35 40 42 40 40 41 37 31 27 24 24 23 24 24 22 19 16 12 10 8 7 7 7
3 4 5 4 4 5 6 6 7 6 5 4 5 6 7 4 5 6 5 20 30 38 38 39 38 33 30 34 40 38 37 35 38 40 40 40 40 39 35 33 32 28 24 21 22 22 20 16 13 11 9 7 8 6
5 5 7 7 9 10 4 4 5 3 6 6 5 5 4 6 7 5 14 33 42 45 44 44 44 41 41 38 34 33 38 37 38 38 39 36 31 25 19 28 32 29 27 23 21 18 17 16 13 12 10 8 6 6
4 7 7 8 4 7 5 4 6 6 5 8 8 6 8 9 6 7 8 27 35 42 48 46 43 42 42 41 40 38 37 37 35 33 32 27 22 20 20 22 23 24 24 23 20 18 16 13 12 11 9 7 6 5
3 8 11 4 4 4 5 5 6 7 16 15 6 4 5 6 7 11 14 21 26 34 44 44 37 37 39 40 40 40 39 42 44 43 39 34 31 28 25 25 26 25 25 24 20 17 15 13 12 10 9 7 6 6
6 16 4 3 4 4 2 4 6 15 14 11 9 7 4 4 6 10 17 24 31 36 44 48 47 45 46 46 45 43 43 45 45 45 43 38 36 34 32 30 29 28 27 25 24 22 18 17 15 13 11 8 8 7
16 7 4 2 2 1 2 8 12 14 12 6 3 3 5 5 6 11 15 24 28 33 41 45 45 47 51 50 46 47 47 44 41 35 26 27 33 35 33 31 29 28 28 26 24 20 18 17 15 13 12 10 9 8
6 5 4 3 1 5 6 2 3 4 5 4 4 4 5 3 2 11 17 24 27 34 40 47 49 50 48 45 44 43 43 46 41 32 24 27 33 33 31 30 28 28 28 25 22 20 18 17 16 14 12 12 11 10
5 9 8 5 3 3 4 4 3 3 3 3 3 5 4 5 4 8 17 23 26 32 37 42 43 43 42 42 44 43 40 39 35 29 24 27 30 31 30 29 28 28 27 25 23 21 20 18 16 14 13 12 11 11
Wind_Direction
228 233 234 239 241 241 241 237 236 232 232 232 237 240 234 236 233 240 252 228 229 254 262 262 249 270 284 298 259 323 43 235 96 204 160 231 182 255 43 163 177 164 143 203 125 132 282 161 112 168 205 144 158 133
229 230 232 236 234 235 237 234 234 231 229 231 234 240 236 238 237 239 244 233 240 249 249 271 268 258 253 262 280 249 269 279 220 157 234 115 325 30 159 239 323 219 180 186 172 214 233 186 192 181 173 163 167 168
239 236 226 229 230 230 232 230 232 232 227 230 233 236 234 232 238 242 239 237 249 265 269 261 264 256 249 242 265 244 264 250 251 283 224 197 201 123 183 246 211 258 180 179 64 248 204 201 195 192 187 178 184 194
236 226 225 223 223 231 230 234 229 228 229 229 233 236 233 230 230 243 247 243 238 253 269 275 286 260 239 238 239 262 251 267 292 290 240 143 150 176 209 229 187 203 137 182 263 275 232 227 218 218 188 188 178 178
225 225 224 221 224 225 226 231 228 223 222 225 229 232 233 236 236 246 260 253 235 220 276 291 309 258 239 232 241 245 238 244 271 257 160 227 198 106 338 39 251 193 188 162 224 220 199 210 214 204 196 185 191 179
217 226 222 223 223 225 224 226 223 219 219 223 227 232 233 233 232 247 289 260 232 235 271 275 264 245 222 219 224 225 225 224 236 237 224 183 161 170 135 233 256 226 225 229 210 188 190 145 166 188 191 186 177 172
220 220 219 218 215 216 219 223 220 217 217 220 225 228 231 225 222 211 227 263 243 210 212 265 256 252 212 194 197 207 203 208 222 238 215 170 179 185 134 229 246 233 246 219 202 174 138 164 163 178 187 163 164 156
216 217 212 214 215 215 215 215 210 211 213 214 219 222 228 230 233 234 241 243 290 237 195 208 247 242 182 175 161 178 181 193 217 220 181 150 154 160 257 241 239 236 264 177 179 209 192 172 161 163 162 161 159 159
215 213 213 213 212 212 211 205 208 205 204 208 207 209 212 220 221 234 253 267 239 230 266 222 179 218 177 183 156 171 170 149 196 184 218 147 209 224 228 234 229 210 188 178 167 179 156 164 160 164 167 167 165 164
210 212 209 207 209 206 203 201 198 196 196 189 180 172 185 207 224 244 233 225 198 197 226 257 200 178 176 164 164 134 168 167 167 228 156 153 251 247 243 240 226 211 203 181 162 156 163 161 165 167 170 163 162 169
205 206 201 201 201 200 198 192 188 185 178 172 170 177 167 195 198 198 216 185 188 217 207 223 190 155 185 140 154 201 180 164 145 231 152 245 267 240 240 231 215 194 195 205 221 197 182 174 166 161 160 163 174 175
205 194 197 198 196 195 193 190 186 184 180 176 165 151 167 187 209 215 197 202 196 219 206 178 167 166 166 162 120 183 170 76 210 143 107 253 247 213 181 177 180 183 182 172 171 163 165 165 160 158 164 167 182 203
194 191 197 197 197 195 193 189 184 184 164 154 163 153 169 196 218 210 196 194 186 207 189 159 136 154 160 178 113 120 133 202 125 83 223 228 212 171 165 162 162 169 163 155 155 156 160 159 161 168 170 179 181 195
188 194 197 198 196 192 191 188 183 181 159 162 161 184 203 198 224 200 218 192 198 176 165 169 137 146 166 129 132 127 227 97 147 231 229 233 198 176 168 168 164 162 163 158 161 160 158 158 158 162 171 172 178 194
194 195 197 196 194 191 189 186 182 176 165 168 176 210 209 222 218 227 220 247 223 187 163 160 107 120 157 119 117 93 56 225 211 223 226 217 180 170 167 167 166 164 165 165 165 164 161 160 160 158 158 158 171 176
191 193 201 198 193 190 186 183 179 176 186 190 207 215 217 173 253 249 244 240 232 186 171 164 110 129 217 155 127 208 156 218 233 215 207 171 171 171 169 169 170 169 167 164 162 159 155 158 159 156 157 155 146 149
191 200 201 193 188 184 180 169 173 179 183 204 201 207 217 233 215 225 236 237 202 161 187 150 152 202 81 153 211 187 209 217 220 178 172 174 171 170 168 168 170 167 164 162 159 159 158 160 163 167 161 150 154 136
205 201 200 189 181 177 170 174 176 180 195 188 181 203 222 223 244 238 251 233 179 190 187 203 156 165 198 180 225 209 206 226 178 171 171 171 170 168 167 166 168 169 166 164 164 163 165 167 166 160 158 158 153 123
194 195 188 181 174 170 143 174 184 176 187 178 198 207 216 238 234 258 265 236 199 206 196 165 203 192 208 208 198 181 179 176 168 168 167 168 167 166 166 166 166 166 165 164 164 166 164 158 153 153 154 155 148 140
185 184 180 176 174 170 132 125 180 160 181 202 212 201 203 221 230 239 262 212 200 190 217 201 218 236 214 202 208 202 189 183 166 148 157 164 168 167 166 165 164 164 162 162 164 163 159 156 155 154 153 160 166 209
175 173 176 171 163 156 149 146 160 203 182 184 194 200 209 219 225 214 208 199 206 211 218 232 231 244 244 219 212 207 193 185 175 169 163 165 168 169 167 166 165 167 168 167 162 162 164 160 156 161 162 159 188 202
160 163 155 162 149 138 143 172 145 163 186 170 151 184 228 199 197 202 206 193 226 228 222 233 241 230 226 215 199 198 189 182 179 167 163 164 164 169 169 168 170 169 170 169 168 164 161 161 163 162 162 162 151 134
152 152 151 125 126 128 137 150 149 166 154 172 139 139 219 221 198 169 193 207 212 225 229 230 231 226 212 192 184 181 182 178 171 168 167 168 168 170 170 171 173 168 166 168 172 166 163 164 164 167 158 154 147 132
153 130 133 127 127 126 150 163 171 153 141 170 164 179 179 185 167 190 232 205 212 212 219 219 213 188 183 180 178 175 175 178 170 170 174 172 169 170 173 171 174 176 175 167 170 171 169 168 169 164 158 155 153 163
129 156 142 128 146 135 130 152 161 157 191 185 171 174 155 162 172 192 225 212 202 203 201 204 201 199 186 180 178 174 177 179 176 171 174 178 170 167 170 171 171 176 177 170 171 172 171 173 168 163 162 159 154 157
120 216 148 134 174 139 153 148 174 174 138 160 213 147 145 151 178 222 203 202 191 195 196 194 193 187 183 186 178 176 177 181 180 176 175 179 176 172 169 170 172 177 183 185 177 174 175 174 170 166 161 160 161 157
160 182 184 183 157 130 116 119 131 137 166 174 172 164 164 176 215 234 201 204 197 202 203 201 199 197 191 183 180 176 179 179 185 181 173 176 179 183 192 186 180 179 176 180 182 182 179 175 172 168 163 154 149 166
132 156 174 176 154 164 136 142 155 172 175 158 140 184 191 192 212 191 195 187 199 203 199 199 198 196 190 184 179 177 174 174 175 172 164 170 179 185 191 186 177 178 176 176 177 175 178 178 174 168 164 162 157 166
162 136 152 159 196 189 179 169 194 178 159 169 182 212 204 185 196 194 186 185 190 197 190 183 183 186 180 178 179 177 175 171 170 168 170 169 172 177 178 177 176 176 176 174 173 174 176 177 172 170 166 167 162 164
153 160 116 169 181 195 208 168 181 155 149 151 148 156 171 168 178 185 181 179 180 187 189 186 184 183 180 179 175 175 178 180 183 180 176 180 180 175 174 178 179 178 178 177 172 169 174 176 174 173 173 171 164 163
137 117 105 109 130 16 145 130 139 134 129 121 119 153 155 135 154 170 178 179 179 178 178 179 180 184 185 184 180 175 177 183 188 190 194 188 179 175 175 178 180 180 179 180 179 180 177 175 175 172 170 169 165 161
138 142 132 122 113 125 146 115 88 85 95 123 150 171 146 138 123 165 170 174 180 182 186 188 187 188 192 189 186 184 182 179 184 186 187 186 179 177 176 177 179 181 180 178 177 178 179 179 173 172 172 169 165 162
100 105 105 116 132 162 150 113 83 101 92 127 142 159 166 160 161 166 175 181 188 190 188 191 193 192 188 191 188 183 181 179 177 179 178 180 179 176 176 179 179 179 179 177 178 179 178 178 175 173 173 172 170 169